Regional Weather Roundup
Issued by NWS

Current Version | Previous Version | Text Only | Print | Product List | Glossary On
Versions: 1 2 3 4 5 6 7 8 9 10 11 12 13 14 15 16 17 18 19 20 21 22 23 24 25 26 27
000
ASPQ40 PGUM 202310
RWRPQ
WEATHER ROUNDUP FOR THE MARIANAS AND MICRONESIA
NATIONAL WEATHER SERVICE TIYAN GU
900 AM CHST SAT APR 21 2018

GUZ001>004-210000-
MARIANA ISLANDS-

CITY           SKY/WX    TMP DP  RH WIND       PRES   REMARKS
GUAM AIRPORT   PTSUNNY   82  77  83 E12       29.90S HX  91
ANDERSEN AFB   CLOUDY    77  72  83 NE17G23   29.90F
ROTA AIRPORT   PTSUNNY   75  72  88 E7        29.90S
TINIAN AP      PTSUNNY   82  73  74 E17       29.89R
SAIPAN AP      MOSUNNY   82  73  74 E20       29.90S

$$

PMZ161-210000-
REPUBLIC OF PALAU-

CITY           SKY/WX    TMP DP  RH WIND       PRES   REMARKS
KOROR AP       LGT RAIN  79  75  89 S8        29.82R
KOROR WSO      CLOUDY    79  79 100 E6        29.84R

$$

PMZ171>174-210000-
FEDERATED STATES OF MICRONESIA-

CITY           SKY/WX    TMP DP  RH WIND       PRES   REMARKS
YAP AIRPORT    PTSUNNY   84  77  79 E12       29.84R HX  94
CHUUK AP       PTSUNNY   86  82  89 NE8       29.80R HX 105
POHNPEI AP     CLOUDY    86  77  74 NE15      29.77S HX  97
POHNPEI WSO    CLOUDY    86  75  70 NE8       29.81S HX  95
KOSRAE AP      CLOUDY    82  77  83 VRB3      29.75S HX  91

$$

PMZ181-210000-
REPUBLIC OF THE MARSHALL ISLANDS-

CITY           SKY/WX    TMP DP  RH WIND       PRES   REMARKS
KWAJALEIN AP   MOSUNNY   86  75  70 E9        29.80S HX  95
MAJURO AP      MOSUNNY   86  77  74 E9        29.82F HX  97
MAJURO WSO     MOSUNNY   84  77  79 E6        29.80F HX  94

$$





USA.gov is the U.S. government's official web portal to all federal, state and local government web resources and services.